Time,TemperatureF,DewpointF,PressureIn,WindDirection,WindDirectionDegrees,WindSpeedMPH,WindSpeedGustMPH,Humidity,HourlyPrecipIn,Conditions,Clouds,dailyrainin,SoftwareType,DateUTC
2013-05-17 00:03:00,52.4,50.1,30.08,ESE,111,0.0,0.0,92,0.00,BKN,BKN,0.02,WeatherDisplay:10.37,2013-05-17 07:03:00,
2013-05-17 00:08:00,52.4,50.1,30.08,ESE,111,0.0,0.0,92,0.00,BKN,BKN,0.02,WeatherDisplay:10.37,2013-05-17 07:08:00,
2013-05-17 00:18:00,52.2,50.2,30.09,ESE,111,0.0,0.0,93,0.00,BKN,BKN,0.02,WeatherDisplay:10.37,2013-05-17 07:18:00,
2013-05-17 00:23:00,52.1,50.5,30.08,ESE,111,0.0,0.0,94,0.00,BKN,BKN,0.02,WeatherDisplay:10.37,2013-05-17 07:23:00,
2013-05-17 00:28:00,52.1,50.4,30.08,ESE,111,0.0,0.0,94,0.00,BKN,BKN,0.02,WeatherDisplay:10.37,2013-05-17 07:28:00,
2013-05-17 00:33:00,52.0,50.3,30.09,ESE,111,0.0,0.0,94,0.00,BKN,BKN,0.02,WeatherDisplay:10.37,2013-05-17 07:33:00,
2013-05-17 00:38:00,52.0,50.3,30.09,ESE,111,0.0,0.0,94,0.00,BKN,BKN,0.02,WeatherDisplay:10.37,2013-05-17 07:38:00,
2013-05-17 00:43:00,51.9,50.3,30.08,ESE,111,0.0,0.0,94,0.00,BKN,BKN,0.02,WeatherDisplay:10.37,2013-05-17 07:43:00,
2013-05-17 00:48:00,51.9,50.3,30.09,ESE,112,0.0,0.0,94,0.00,BKN,BKN,0.02,WeatherDisplay:10.37,2013-05-17 07:48:00,
2013-05-17 00:53:00,51.9,50.2,30.09,ESE,117,0.0,0.0,94,0.01,RA,RA,0.03,WeatherDisplay:10.37,2013-05-17 07:53:00,
2013-05-17 00:58:00,51.8,50.1,30.08,SE,126,0.0,0.0,94,0.00,RA,RA,0.03,WeatherDisplay:10.37,2013-05-17 07:58:00,
2013-05-17 01:03:00,51.8,50.1,30.08,SE,129,0.0,0.0,94,0.00,BKN,BKN,0.03,WeatherDisplay:10.37,2013-05-17 08:03:00,
2013-05-17 01:08:00,51.8,50.1,30.08,SE,128,0.0,0.0,94,0.01,RA,RA,0.04,WeatherDisplay:10.37,2013-05-17 08:08:00,
2013-05-17 01:13:00,51.7,50.0,30.08,SE,128,0.0,0.0,94,0.00,RA,RA,0.04,WeatherDisplay:10.37,2013-05-17 08:13:00,
2013-05-17 01:18:00,51.7,50.0,30.08,SE,129,0.0,0.0,94,0.00,BKN,BKN,0.04,WeatherDisplay:10.37,2013-05-17 08:18:00,
2013-05-17 01:23:00,51.7,50.3,30.08,SE,129,0.0,0.0,95,0.00,BKN,BKN,0.04,WeatherDisplay:10.37,2013-05-17 08:23:00,
2013-05-17 01:28:00,51.7,50.3,30.09,SE,129,0.0,0.0,95,0.00,BKN,BKN,0.04,WeatherDisplay:10.37,2013-05-17 08:28:00,
2013-05-17 01:38:00,51.7,50.3,30.09,SE,128,0.0,0.0,95,0.01,RA,RA,0.05,WeatherDisplay:10.37,2013-05-17 08:38:00,
2013-05-17 01:43:00,51.7,50.3,30.09,SE,128,0.0,0.0,95,0.00,RA,RA,0.05,WeatherDisplay:10.37,2013-05-17 08:43:00,
2013-05-17 01:48:00,51.6,50.2,30.08,SE,128,0.0,0.0,95,0.01,RA,RA,0.06,WeatherDisplay:10.37,2013-05-17 08:48:00,
2013-05-17 01:53:00,51.6,50.2,30.08,SE,129,0.0,0.0,95,0.00,RA,RA,0.06,WeatherDisplay:10.37,2013-05-17 08:53:00,
2013-05-17 01:58:00,51.6,50.2,30.08,SE,128,0.0,0.0,95,0.00,BKN,BKN,0.06,WeatherDisplay:10.37,2013-05-17 08:58:00,
2013-05-17 02:03:00,51.6,50.2,30.08,SE,127,0.0,0.0,95,0.00,BKN,BKN,0.06,WeatherDisplay:10.37,2013-05-17 09:03:00,
2013-05-17 02:08:00,51.6,50.2,30.08,SE,127,0.0,0.0,95,0.00,BKN,BKN,0.06,WeatherDisplay:10.37,2013-05-17 09:08:00,
2013-05-17 02:13:00,51.6,50.2,30.08,SE,127,0.0,0.0,95,0.00,BKN,BKN,0.06,WeatherDisplay:10.37,2013-05-17 09:13:00,
2013-05-17 02:18:00,51.5,50.1,30.08,SE,127,0.0,0.0,95,0.00,BKN,BKN,0.06,WeatherDisplay:10.37,2013-05-17 09:18:00,
2013-05-17 02:23:00,51.5,50.1,30.08,SE,127,0.0,0.0,95,0.00,BKN,BKN,0.06,WeatherDisplay:10.37,2013-05-17 09:23:00,
2013-05-17 02:28:00,51.5,50.1,30.08,SE,127,0.0,0.0,95,0.00,BKN,BKN,0.06,WeatherDisplay:10.37,2013-05-17 09:28:00,
2013-05-17 02:33:00,51.4,50.3,30.08,SE,127,0.0,0.0,96,0.00,BKN,BKN,0.06,WeatherDisplay:10.37,2013-05-17 09:33:00,
2013-05-17 02:38:00,51.4,50.3,30.08,SE,127,0.0,0.0,96,0.00,BKN,BKN,0.06,WeatherDisplay:10.37,2013-05-17 09:38:00,
2013-05-17 02:43:00,51.4,50.3,30.08,SE,127,0.0,0.0,96,0.00,BKN,BKN,0.06,WeatherDisplay:10.37,2013-05-17 09:43:00,
2013-05-17 02:48:00,51.4,50.3,30.08,SE,127,0.0,0.0,96,0.00,BKN,BKN,0.06,WeatherDisplay:10.37,2013-05-17 09:48:00,
2013-05-17 02:53:00,51.4,50.3,30.08,SE,127,0.0,0.0,96,0.00,BKN,BKN,0.06,WeatherDisplay:10.37,2013-05-17 09:53:00,
2013-05-17 02:58:00,51.4,50.3,30.08,SE,127,0.0,0.0,96,0.00,BKN,BKN,0.06,WeatherDisplay:10.37,2013-05-17 09:58:00,
2013-05-17 03:03:00,51.4,50.3,30.08,SE,127,0.0,0.0,96,0.00,BKN,BKN,0.06,WeatherDisplay:10.37,2013-05-17 10:03:00,
2013-05-17 03:08:00,51.4,50.3,30.08,SE,127,0.0,0.0,96,0.01,RA,RA,0.07,WeatherDisplay:10.37,2013-05-17 10:08:00,
2013-05-17 03:13:00,51.4,50.3,30.08,SE,127,0.0,0.0,96,0.00,RA,RA,0.07,WeatherDisplay:10.37,2013-05-17 10:13:00,
2013-05-17 03:18:00,51.4,50.3,30.08,SE,127,0.0,0.0,96,0.00,BKN,BKN,0.07,WeatherDisplay:10.37,2013-05-17 10:18:00,
2013-05-17 03:23:00,51.4,50.3,30.08,SE,127,0.0,0.0,96,0.00,BKN,BKN,0.07,WeatherDisplay:10.37,2013-05-17 10:23:00,
2013-05-17 03:28:00,51.4,50.3,30.08,SE,127,0.0,0.0,96,0.01,RA,RA,0.08,WeatherDisplay:10.37,2013-05-17 10:28:00,
2013-05-17 03:33:00,51.4,50.3,30.08,SE,127,0.0,0.0,96,0.00,RA,RA,0.08,WeatherDisplay:10.37,2013-05-17 10:33:00,
2013-05-17 03:38:00,51.5,50.4,30.08,SE,129,0.0,0.0,96,0.00,BKN,BKN,0.08,WeatherDisplay:10.37,2013-05-17 10:38:00,
2013-05-17 03:43:00,51.5,50.4,30.08,SE,131,0.0,0.0,96,0.01,RA,RA,0.09,WeatherDisplay:10.37,2013-05-17 10:43:00,
2013-05-17 03:48:00,51.5,50.4,30.08,SE,132,0.0,0.0,96,0.00,RA,RA,0.09,WeatherDisplay:10.37,2013-05-17 10:48:00,
2013-05-17 03:53:00,51.5,50.4,30.08,SE,132,0.0,0.0,96,0.00,BKN,BKN,0.09,WeatherDisplay:10.37,2013-05-17 10:53:00,
2013-05-17 03:58:00,51.5,50.4,30.08,SE,132,0.0,0.0,96,0.00,BKN,BKN,0.09,WeatherDisplay:10.37,2013-05-17 10:58:00,
2013-05-17 04:03:00,51.5,50.4,30.08,SE,132,0.0,0.0,96,0.01,RA,RA,0.10,WeatherDisplay:10.37,2013-05-17 11:03:00,
2013-05-17 04:08:00,51.5,50.4,30.08,SE,132,0.0,0.0,96,0.00,RA,RA,0.10,WeatherDisplay:10.37,2013-05-17 11:08:00,
2013-05-17 04:13:00,51.5,50.4,30.08,SE,132,0.0,0.0,96,0.00,BKN,BKN,0.10,WeatherDisplay:10.37,2013-05-17 11:13:00,
2013-05-17 04:18:00,51.5,50.4,30.09,SE,140,0.0,0.0,96,0.00,BKN,BKN,0.10,WeatherDisplay:10.37,2013-05-17 11:18:00,
2013-05-17 04:23:00,51.5,50.4,30.09,SSE,153,0.0,0.0,96,0.00,BKN,BKN,0.10,WeatherDisplay:10.37,2013-05-17 11:23:00,
2013-05-17 04:28:00,51.5,50.4,30.09,SSE,159,0.0,0.0,96,0.00,BKN,BKN,0.10,WeatherDisplay:10.37,2013-05-17 11:28:00,
2013-05-17 04:33:00,51.5,50.4,30.09,SSE,161,0.0,0.0,96,0.00,BKN,BKN,0.10,WeatherDisplay:10.37,2013-05-17 11:33:00,
2013-05-17 04:38:00,51.5,50.4,30.09,SSE,159,0.0,0.0,96,0.00,BKN,BKN,0.10,WeatherDisplay:10.37,2013-05-17 11:38:00,
2013-05-17 04:43:00,51.5,50.4,30.09,SSE,150,0.0,0.0,96,0.00,BKN,BKN,0.10,WeatherDisplay:10.37,2013-05-17 11:43:00,
2013-05-17 04:48:00,51.5,50.4,30.09,SE,145,0.0,0.0,96,0.00,BKN,BKN,0.10,WeatherDisplay:10.37,2013-05-17 11:48:00,
2013-05-17 04:53:00,51.5,50.4,30.09,SE,145,0.0,0.0,96,0.00,BKN,BKN,0.10,WeatherDisplay:10.37,2013-05-17 11:53:00,
2013-05-17 04:58:00,51.5,50.4,30.09,SE,145,0.0,0.0,96,0.00,BKN,BKN,0.10,WeatherDisplay:10.37,2013-05-17 11:58:00,
2013-05-17 05:03:00,51.5,50.4,30.08,SE,145,0.0,0.0,96,0.00,BKN,BKN,0.10,WeatherDisplay:10.37,2013-05-17 12:03:00,
2013-05-17 05:08:00,51.5,50.4,30.09,SE,146,0.0,0.0,96,0.00,BKN,BKN,0.10,WeatherDisplay:10.37,2013-05-17 12:08:00,
2013-05-17 05:13:00,51.6,50.5,30.09,SSE,147,0.0,0.0,96,0.00,BKN,BKN,0.10,WeatherDisplay:10.37,2013-05-17 12:13:00,
2013-05-17 05:18:00,51.6,50.5,30.08,SSE,147,0.0,0.0,96,0.00,BKN,BKN,0.10,WeatherDisplay:10.37,2013-05-17 12:18:00,
2013-05-17 05:23:00,51.6,50.5,30.09,SSE,155,0.0,0.0,96,0.00,BKN,BKN,0.10,WeatherDisplay:10.37,2013-05-17 12:23:00,
2013-05-17 05:28:00,51.5,50.4,30.09,SSE,163,0.0,0.0,96,0.00,BKN,BKN,0.10,WeatherDisplay:10.37,2013-05-17 12:28:00,
2013-05-17 05:33:00,51.5,50.4,30.09,SSE,166,0.0,0.0,96,0.00,BKN,BKN,0.10,WeatherDisplay:10.37,2013-05-17 12:33:00,
2013-05-17 05:38:00,51.6,50.5,30.09,SSE,166,0.0,0.0,96,0.01,RA,RA,0.11,WeatherDisplay:10.37,2013-05-17 12:38:00,
2013-05-17 05:43:00,51.6,50.5,30.09,SSE,166,0.0,0.0,96,0.00,RA,RA,0.11,WeatherDisplay:10.37,2013-05-17 12:43:00,
2013-05-17 05:48:00,51.6,50.5,30.09,SSE,166,0.0,0.0,96,0.00,BKN,BKN,0.11,WeatherDisplay:10.37,2013-05-17 12:48:00,
2013-05-17 05:53:00,51.5,50.4,30.09,SSE,166,0.0,0.0,96,0.00,BKN,BKN,0.11,WeatherDisplay:10.37,2013-05-17 12:53:00,
2013-05-17 05:58:00,51.5,50.4,30.09,SSE,166,0.0,0.0,96,0.00,BKN,BKN,0.11,WeatherDisplay:10.37,2013-05-17 12:58:00,
2013-05-17 06:03:00,51.5,50.4,30.09,SSE,166,0.0,0.0,96,0.00,BKN,BKN,0.11,WeatherDisplay:10.37,2013-05-17 13:03:00,
2013-05-17 06:08:00,51.5,50.4,30.09,SSE,166,0.0,0.0,96,0.00,BKN,BKN,0.11,WeatherDisplay:10.37,2013-05-17 13:08:00,
2013-05-17 06:13:00,51.5,50.4,30.09,SSE,166,0.0,0.0,96,0.00,BKN,BKN,0.11,WeatherDisplay:10.37,2013-05-17 13:13:00,
2013-05-17 06:18:00,51.5,50.4,30.10,SSE,165,0.0,0.0,96,0.00,BKN,BKN,0.11,WeatherDisplay:10.37,2013-05-17 13:18:00,
2013-05-17 06:23:00,51.5,50.4,30.10,SSE,165,0.0,0.0,96,0.00,BKN,BKN,0.11,WeatherDisplay:10.37,2013-05-17 13:23:00,
2013-05-17 06:28:00,51.5,50.4,30.10,SSE,165,0.0,0.0,96,0.01,RA,RA,0.12,WeatherDisplay:10.37,2013-05-17 13:28:00,
2013-05-17 06:33:00,51.5,50.4,30.10,SSE,162,0.0,0.0,96,0.00,RA,RA,0.12,WeatherDisplay:10.37,2013-05-17 13:33:00,
2013-05-17 06:38:00,51.6,50.5,30.10,SSE,158,0.0,0.0,96,0.00,BKN,BKN,0.12,WeatherDisplay:10.37,2013-05-17 13:38:00,
2013-05-17 06:43:00,51.6,50.5,30.10,SSE,156,0.0,0.0,96,0.00,BKN,BKN,0.12,WeatherDisplay:10.37,2013-05-17 13:43:00,
2013-05-17 06:48:00,51.7,50.6,30.10,SSE,156,0.0,0.0,96,0.00,BKN,BKN,0.12,WeatherDisplay:10.37,2013-05-17 13:48:00,
2013-05-17 06:53:00,51.8,50.7,30.10,SSE,157,0.0,0.0,96,0.01,RA,RA,0.13,WeatherDisplay:10.37,2013-05-17 13:53:00,
2013-05-17 06:58:00,51.8,50.7,30.10,SSE,156,0.0,0.0,96,0.00,RA,RA,0.13,WeatherDisplay:10.37,2013-05-17 13:58:00,
2013-05-17 07:03:00,51.8,50.7,30.10,SSE,156,0.0,0.0,96,0.00,RA,RA,0.00,WeatherDisplay:10.37,2013-05-17 14:03:00,
2013-05-17 07:08:00,51.9,50.8,30.10,SSE,157,0.0,0.0,96,0.00,RA,RA,0.00,WeatherDisplay:10.37,2013-05-17 14:08:00,
2013-05-17 07:13:00,51.9,50.8,30.10,SSE,155,0.0,0.0,96,0.00,BKN,BKN,0.00,WeatherDisplay:10.37,2013-05-17 14:13:00,
2013-05-17 07:18:00,51.8,50.7,30.11,SSE,152,0.0,0.0,96,0.00,BKN,BKN,0.00,WeatherDisplay:10.37,2013-05-17 14:18:00,
2013-05-17 07:23:00,51.9,50.7,30.11,SE,140,0.0,0.0,96,0.00,BKN,BKN,0.00,WeatherDisplay:10.37,2013-05-17 14:23:00,
2013-05-17 07:28:00,51.8,50.7,30.11,SE,140,0.0,0.0,96,0.00,BKN,BKN,0.00,WeatherDisplay:10.37,2013-05-17 14:28:00,
2013-05-17 07:33:00,51.8,50.7,30.11,SSE,150,0.0,0.0,96,0.00,BKN,BKN,0.00,WeatherDisplay:10.37,2013-05-17 14:33:00,
2013-05-17 07:38:00,51.9,50.8,30.11,SSE,150,0.0,0.0,96,0.00,BKN,BKN,0.00,WeatherDisplay:10.37,2013-05-17 14:38:00,
2013-05-17 07:43:00,52.1,50.9,30.11,SSE,149,0.0,2.0,96,0.00,BKN,BKN,0.00,WeatherDisplay:10.37,2013-05-17 14:43:00,
2013-05-17 07:48:00,52.1,51.0,30.11,SSE,147,0.0,2.0,96,0.00,BKN,BKN,0.00,WeatherDisplay:10.37,2013-05-17 14:48:00,
2013-05-17 07:53:00,52.1,51.0,30.11,SSE,152,0.0,0.0,96,0.00,BKN,BKN,0.00,WeatherDisplay:10.37,2013-05-17 14:53:00,
2013-05-17 07:58:00,52.1,51.0,30.11,SSE,154,0.0,0.0,96,0.00,BKN,BKN,0.00,WeatherDisplay:10.37,2013-05-17 14:58:00,
2013-05-17 08:03:00,52.1,51.0,30.11,SSE,152,0.0,0.0,96,0.00,BKN,BKN,0.00,WeatherDisplay:10.37,2013-05-17 15:03:00,
2013-05-17 08:08:00,52.2,50.8,30.11,SE,145,0.0,0.0,95,0.00,BKN,BKN,0.00,WeatherDisplay:10.37,2013-05-17 15:08:00,
2013-05-17 08:13:00,52.2,50.8,30.11,SE,140,0.0,0.0,95,0.00,BKN,BKN,0.00,WeatherDisplay:10.37,2013-05-17 15:13:00,
2013-05-17 08:18:00,52.3,50.9,30.11,SE,134,0.0,2.0,95,0.00,BKN,BKN,0.00,WeatherDisplay:10.37,2013-05-17 15:18:00,
2013-05-17 08:23:00,52.4,51.0,30.11,SE,143,0.0,0.0,95,0.00,BKN,BKN,0.00,WeatherDisplay:10.37,2013-05-17 15:23:00,
2013-05-17 08:28:00,52.5,51.1,30.11,SSE,157,0.0,0.0,95,0.00,BKN,BKN,0.00,WeatherDisplay:10.37,2013-05-17 15:28:00,
2013-05-17 08:33:00,52.7,51.3,30.11,SSE,156,0.0,0.0,95,0.00,BKN,BKN,0.00,WeatherDisplay:10.37,2013-05-17 15:33:00,
2013-05-17 08:38:00,52.9,51.2,30.11,SSE,151,0.0,2.0,94,0.00,BKN,BKN,0.00,WeatherDisplay:10.37,2013-05-17 15:38:00,
2013-05-17 08:43:00,52.8,50.8,30.11,SE,129,0.0,1.0,93,0.00,BKN,BKN,0.00,WeatherDisplay:10.37,2013-05-17 15:43:00,
2013-05-17 08:48:00,52.9,50.9,30.11,ESE,115,0.0,1.0,93,0.00,BKN,BKN,0.00,WeatherDisplay:10.37,2013-05-17 15:48:00,
2013-05-17 08:53:00,52.9,50.9,30.11,ESE,104,0.0,2.0,93,0.00,BKN,BKN,0.00,WeatherDisplay:10.37,2013-05-17 15:53:00,
2013-05-17 08:58:00,53.1,51.1,30.11,SSE,151,0.0,1.0,93,0.00,BKN,BKN,0.00,WeatherDisplay:10.37,2013-05-17 15:58:00,
2013-05-17 09:03:00,53.3,51.3,30.11,SSW,193,0.0,1.0,93,0.00,BKN,BKN,0.00,WeatherDisplay:10.37,2013-05-17 16:03:00,
2013-05-17 09:08:00,53.4,51.4,30.11,SE,130,0.0,2.0,93,0.00,BKN,BKN,0.00,WeatherDisplay:10.37,2013-05-17 16:08:00,
2013-05-17 09:13:00,53.4,50.8,30.11,ESE,118,1.0,3.0,91,0.00,BKN,BKN,0.00,WeatherDisplay:10.37,2013-05-17 16:13:00,
2013-05-17 09:18:00,53.5,50.9,30.11,South,177,0.0,1.0,91,0.00,BKN,BKN,0.00,WeatherDisplay:10.37,2013-05-17 16:18:00,
2013-05-17 09:23:00,53.6,51.1,30.11,South,175,0.0,2.0,91,0.00,BKN,BKN,0.00,WeatherDisplay:10.37,2013-05-17 16:23:00,
2013-05-17 09:28:00,53.8,51.3,30.11,SSE,160,0.0,0.0,91,0.00,BKN,BKN,0.00,WeatherDisplay:10.37,2013-05-17 16:28:00,
2013-05-17 09:33:00,54.1,51.5,30.11,SSE,154,1.0,2.0,91,0.00,BKN,BKN,0.00,WeatherDisplay:10.37,2013-05-17 16:33:00,
2013-05-17 09:38:00,53.9,50.7,30.11,SE,142,0.0,2.0,89,0.00,BKN,BKN,0.00,WeatherDisplay:10.37,2013-05-17 16:38:00,
2013-05-17 09:43:00,54.1,51.2,30.11,SE,138,0.0,2.0,90,0.00,BKN,BKN,0.00,WeatherDisplay:10.37,2013-05-17 16:43:00,
2013-05-17 09:48:00,54.3,51.7,30.11,SE,124,0.0,1.0,91,0.00,BKN,BKN,0.00,WeatherDisplay:10.37,2013-05-17 16:48:00,
2013-05-17 09:53:00,54.5,51.6,30.11,ESE,119,1.0,1.0,90,0.00,BKN,BKN,0.00,WeatherDisplay:10.37,2013-05-17 16:53:00,
2013-05-17 09:58:00,54.5,51.6,30.11,ESE,113,0.0,3.0,90,0.01,RA,RA,0.01,WeatherDisplay:10.37,2013-05-17 16:58:00,
2013-05-17 10:03:00,54.5,52.0,30.11,East,101,0.0,2.0,91,0.00,RA,RA,0.01,WeatherDisplay:10.37,2013-05-17 17:03:00,
2013-05-17 10:08:00,54.6,51.7,30.11,ESE,115,0.0,2.0,90,0.00,BKN,BKN,0.01,WeatherDisplay:10.37,2013-05-17 17:08:00,
2013-05-17 10:13:00,54.6,51.7,30.11,SE,145,0.0,2.0,90,0.00,BKN,BKN,0.01,WeatherDisplay:10.37,2013-05-17 17:13:00,
2013-05-17 10:18:00,54.7,51.5,30.11,SSE,160,1.0,2.0,89,0.00,BKN,BKN,0.01,WeatherDisplay:10.37,2013-05-17 17:18:00,
2013-05-17 10:23:00,54.6,51.5,30.12,South,172,0.0,1.0,89,0.00,BKN,BKN,0.01,WeatherDisplay:10.37,2013-05-17 17:23:00,
2013-05-17 10:28:00,54.7,51.5,30.12,SSE,162,0.0,2.0,89,0.00,BKN,BKN,0.01,WeatherDisplay:10.37,2013-05-17 17:28:00,
2013-05-17 10:33:00,54.8,51.9,30.12,SE,132,0.0,2.0,90,0.00,BKN,BKN,0.01,WeatherDisplay:10.37,2013-05-17 17:33:00,
2013-05-17 10:38:00,55.0,52.1,30.12,ESE,104,0.0,0.0,90,0.00,BKN,BKN,0.01,WeatherDisplay:10.37,2013-05-17 17:38:00,
2013-05-17 10:43:00,55.1,51.9,30.12,ESE,104,1.0,5.0,89,0.00,BKN,BKN,0.01,WeatherDisplay:10.37,2013-05-17 17:43:00,
2013-05-17 10:48:00,55.2,51.7,30.12,SE,136,0.0,1.0,88,0.00,BKN,BKN,0.01,WeatherDisplay:10.37,2013-05-17 17:48:00,
2013-05-17 10:53:00,55.4,51.9,30.12,South,177,1.0,1.0,88,0.01,RA,RA,0.02,WeatherDisplay:10.37,2013-05-17 17:53:00,
2013-05-17 10:58:00,55.6,51.8,30.12,SSE,167,0.0,1.0,87,0.00,RA,RA,0.02,WeatherDisplay:10.37,2013-05-17 17:58:00,
2013-05-17 11:03:00,55.7,51.9,30.12,SE,131,1.0,2.0,87,0.00,BKN,BKN,0.02,WeatherDisplay:10.37,2013-05-17 18:03:00,
2013-05-17 11:08:00,55.9,51.8,30.12,SE,128,0.0,2.0,86,0.00,BKN,BKN,0.02,WeatherDisplay:10.37,2013-05-17 18:08:00,
2013-05-17 11:13:00,56.4,51.6,30.12,South,169,1.0,2.0,84,0.00,BKN,BKN,0.02,WeatherDisplay:10.37,2013-05-17 18:13:00,
2013-05-17 11:18:00,56.5,52.4,30.12,SW,224,0.0,1.0,86,0.00,BKN,BKN,0.02,WeatherDisplay:10.37,2013-05-17 18:18:00,
2013-05-17 11:23:00,56.8,52.3,30.12,SE,127,0.0,2.0,85,0.00,BKN,BKN,0.02,WeatherDisplay:10.37,2013-05-17 18:23:00,
2013-05-17 11:28:00,56.9,51.1,30.12,ESE,115,1.0,4.0,81,0.00,BKN,BKN,0.02,WeatherDisplay:10.37,2013-05-17 18:28:00,
2013-05-17 11:33:00,56.7,50.9,30.12,ESE,105,0.0,2.0,81,0.00,BKN,BKN,0.02,WeatherDisplay:10.37,2013-05-17 18:33:00,
2013-05-17 11:38:00,57.0,51.2,30.12,SE,145,1.0,2.0,81,0.00,BKN,BKN,0.02,WeatherDisplay:10.37,2013-05-17 18:38:00,
2013-05-17 11:43:00,57.4,50.5,30.12,South,169,1.0,2.0,78,0.00,BKN,BKN,0.02,WeatherDisplay:10.37,2013-05-17 18:43:00,
2013-05-17 11:48:00,57.4,50.9,30.12,SSE,163,1.0,3.0,79,0.00,BKN,BKN,0.02,WeatherDisplay:10.37,2013-05-17 18:48:00,
2013-05-17 11:53:00,57.4,50.6,30.12,SSE,150,0.0,2.0,78,0.00,BKN,BKN,0.02,WeatherDisplay:10.37,2013-05-17 18:53:00,
2013-05-17 11:58:00,57.6,51.5,30.12,SE,141,0.0,3.0,80,0.00,BKN,BKN,0.02,WeatherDisplay:10.37,2013-05-17 18:58:00,
2013-05-17 12:03:00,58.0,51.9,30.12,SSE,158,1.0,4.0,80,0.00,BKN,BKN,0.02,WeatherDisplay:10.37,2013-05-17 19:03:00,
2013-05-17 12:08:00,57.6,50.1,30.12,SSE,156,0.0,3.0,76,0.00,BKN,BKN,0.02,WeatherDisplay:10.37,2013-05-17 19:08:00,
2013-05-17 12:13:00,57.2,50.4,30.12,West,272,0.0,1.0,78,0.00,BKN,BKN,0.02,WeatherDisplay:10.37,2013-05-17 19:13:00,
2013-05-17 12:18:00,57.3,51.2,30.11,NW,307,0.0,0.0,80,0.00,BKN,BKN,0.02,WeatherDisplay:10.37,2013-05-17 19:18:00,
2013-05-17 12:23:00,57.6,51.2,30.11,NNW,339,0.0,3.0,79,0.00,BKN,BKN,0.02,WeatherDisplay:10.37,2013-05-17 19:23:00,
2013-05-17 12:28:00,57.8,50.6,30.12,SE,126,1.0,3.0,77,0.00,BKN,BKN,0.02,WeatherDisplay:10.37,2013-05-17 19:28:00,
2013-05-17 12:33:00,58.0,49.3,30.12,ESE,110,1.0,5.0,73,0.00,BKN,BKN,0.02,WeatherDisplay:10.37,2013-05-17 19:33:00,
2013-05-17 12:38:00,58.3,50.0,30.12,ESE,109,1.0,1.0,74,0.00,BKN,BKN,0.02,WeatherDisplay:10.37,2013-05-17 19:38:00,
2013-05-17 12:43:00,58.6,49.9,30.12,WNW,285,0.0,4.0,73,0.00,BKN,BKN,0.02,WeatherDisplay:10.37,2013-05-17 19:43:00,
2013-05-17 12:48:00,58.8,49.8,30.12,WNW,282,1.0,5.0,72,0.00,BKN,BKN,0.02,WeatherDisplay:10.37,2013-05-17 19:48:00,
2013-05-17 12:53:00,58.6,49.2,30.12,West,272,2.0,6.0,71,0.00,BKN,BKN,0.02,WeatherDisplay:10.37,2013-05-17 19:53:00,
2013-05-17 12:58:00,58.7,49.6,30.12,WSW,243,1.0,4.0,72,0.00,BKN,BKN,0.02,WeatherDisplay:10.37,2013-05-17 19:58:00,
2013-05-17 13:08:00,59.0,48.5,30.12,SSE,151,1.0,4.0,68,0.00,BKN,BKN,0.02,WeatherDisplay:10.37,2013-05-17 20:08:00,
2013-05-17 13:13:00,59.2,49.0,30.12,SSE,155,2.0,5.0,69,0.00,BKN,BKN,0.02,WeatherDisplay:10.37,2013-05-17 20:13:00,
2013-05-17 13:18:00,59.3,50.3,30.12,SW,222,0.0,2.0,72,0.00,BKN,BKN,0.02,WeatherDisplay:10.37,2013-05-17 20:18:00,
2013-05-17 13:23:00,59.6,49.4,30.12,SSW,193,0.0,3.0,69,0.00,BKN,BKN,0.02,WeatherDisplay:10.37,2013-05-17 20:23:00,
2013-05-17 13:28:00,60.3,49.7,30.12,South,178,3.0,5.0,68,0.00,BKN,BKN,0.02,WeatherDisplay:10.37,2013-05-17 20:28:00,
2013-05-17 13:33:00,60.4,49.4,30.12,South,181,2.0,4.0,67,0.00,BKN,BKN,0.02,WeatherDisplay:10.37,2013-05-17 20:33:00,
2013-05-17 13:38:00,60.3,48.9,30.12,SSE,151,1.0,3.0,66,0.00,BKN,BKN,0.02,WeatherDisplay:10.37,2013-05-17 20:38:00,
2013-05-17 13:43:00,60.4,49.4,30.12,SSW,192,0.0,2.0,67,0.00,BKN,BKN,0.02,WeatherDisplay:10.37,2013-05-17 20:43:00,
2013-05-17 13:48:00,60.1,48.7,30.12,SW,220,1.0,4.0,66,0.00,BKN,BKN,0.02,WeatherDisplay:10.37,2013-05-17 20:48:00,
2013-05-17 14:03:00,60.3,48.8,30.12,SSW,202,0.0,5.0,66,0.00,BKN,BKN,0.02,WeatherDisplay:10.37,2013-05-17 21:03:00,
2013-05-17 14:08:00,60.2,48.4,30.12,South,190,1.0,3.0,65,0.00,BKN,BKN,0.02,WeatherDisplay:10.37,2013-05-17 21:08:00,
2013-05-17 14:13:00,60.1,48.7,30.12,South,188,1.0,2.0,66,0.00,BKN,BKN,0.02,WeatherDisplay:10.37,2013-05-17 21:13:00,
2013-05-17 14:18:00,59.9,48.1,30.12,SSW,193,1.0,5.0,65,0.00,BKN,BKN,0.02,WeatherDisplay:10.37,2013-05-17 21:18:00,
2013-05-17 14:23:00,59.5,48.1,30.12,SE,131,2.0,5.0,66,0.00,BKN,BKN,0.02,WeatherDisplay:10.37,2013-05-17 21:23:00,
2013-05-17 14:28:00,59.2,48.6,30.12,ESE,123,2.0,4.0,68,0.00,BKN,BKN,0.02,WeatherDisplay:10.37,2013-05-17 21:28:00,
2013-05-17 14:33:00,59.0,48.8,30.12,SE,133,1.0,2.0,69,0.00,BKN,BKN,0.02,WeatherDisplay:10.37,2013-05-17 21:33:00,
2013-05-17 14:38:00,58.9,48.0,30.12,ESE,123,2.0,3.0,67,0.00,BKN,BKN,0.02,WeatherDisplay:10.37,2013-05-17 21:38:00,
2013-05-17 14:43:00,58.7,47.8,30.12,SE,139,2.0,3.0,67,0.00,BKN,BKN,0.02,WeatherDisplay:10.37,2013-05-17 21:43:00,
2013-05-17 14:48:00,58.6,48.8,30.12,SE,139,0.0,2.0,70,0.00,BKN,BKN,0.02,WeatherDisplay:10.37,2013-05-17 21:48:00,
2013-05-17 14:53:00,58.5,48.0,30.12,SSE,150,0.0,3.0,68,0.00,BKN,BKN,0.02,WeatherDisplay:10.37,2013-05-17 21:53:00,
2013-05-17 14:58:00,58.6,48.1,30.12,SSE,158,1.0,3.0,68,0.00,BKN,BKN,0.02,WeatherDisplay:10.37,2013-05-17 21:58:00,
2013-05-17 15:03:00,58.8,48.6,30.12,SSE,147,0.0,3.0,69,0.00,BKN,BKN,0.02,WeatherDisplay:10.37,2013-05-17 22:03:00,
2013-05-17 15:08:00,58.9,49.1,30.12,SE,130,0.0,3.0,70,0.00,BKN,BKN,0.02,WeatherDisplay:10.37,2013-05-17 22:08:00,
2013-05-17 15:13:00,59.0,48.8,30.12,SSE,148,0.0,3.0,69,0.00,BKN,BKN,0.02,WeatherDisplay:10.37,2013-05-17 22:13:00,
2013-05-17 15:18:00,59.1,48.5,30.12,ESE,119,2.0,4.0,68,0.00,BKN,BKN,0.02,WeatherDisplay:10.37,2013-05-17 22:18:00,
2013-05-17 15:23:00,59.1,48.2,30.12,ESE,116,1.0,2.0,67,0.00,BKN,BKN,0.02,WeatherDisplay:10.37,2013-05-17 22:23:00,
2013-05-17 15:28:00,59.4,48.4,30.11,South,176,1.0,2.0,67,0.00,BKN,BKN,0.02,WeatherDisplay:10.37,2013-05-17 22:28:00,
2013-05-17 15:33:00,59.7,47.9,30.11,SSE,162,1.0,3.0,65,0.00,BKN,BKN,0.02,WeatherDisplay:10.37,2013-05-17 22:33:00,
2013-05-17 15:38:00,59.9,48.5,30.11,SE,126,0.0,2.0,66,0.00,BKN,BKN,0.02,WeatherDisplay:10.37,2013-05-17 22:38:00,
2013-05-17 15:43:00,60.0,48.2,30.11,ESE,114,1.0,3.0,65,0.00,BKN,BKN,0.02,WeatherDisplay:10.37,2013-05-17 22:43:00,
2013-05-17 15:48:00,60.2,48.8,30.11,SE,137,0.0,3.0,66,0.00,BKN,BKN,0.02,WeatherDisplay:10.37,2013-05-17 22:48:00,
2013-05-17 15:53:00,60.5,47.8,30.11,SSE,165,0.0,4.0,63,0.00,BKN,BKN,0.02,WeatherDisplay:10.37,2013-05-17 22:53:00,
2013-05-17 15:58:00,60.9,48.7,30.11,South,171,1.0,3.0,64,0.00,BKN,BKN,0.02,WeatherDisplay:10.37,2013-05-17 22:58:00,
2013-05-17 16:03:00,60.9,48.2,30.11,ESE,120,1.0,3.0,63,0.00,BKN,BKN,0.02,WeatherDisplay:10.37,2013-05-17 23:03:00,
2013-05-17 16:08:00,60.8,48.1,30.11,SSE,160,2.0,4.0,63,0.00,BKN,BKN,0.02,WeatherDisplay:10.37,2013-05-17 23:08:00,
2013-05-17 16:13:00,60.8,47.7,30.11,SSW,198,1.0,6.0,62,0.00,BKN,BKN,0.02,WeatherDisplay:10.37,2013-05-17 23:13:00,
2013-05-17 16:18:00,60.7,47.2,30.10,SSW,193,0.0,2.0,61,0.00,BKN,BKN,0.02,WeatherDisplay:10.37,2013-05-17 23:18:00,
2013-05-17 16:23:00,61.0,48.3,30.10,SSW,192,0.0,0.0,63,0.00,BKN,BKN,0.02,WeatherDisplay:10.37,2013-05-17 23:23:00,
2013-05-17 16:28:00,61.3,48.6,30.11,SSW,194,1.0,2.0,63,0.00,BKN,BKN,0.02,WeatherDisplay:10.37,2013-05-17 23:28:00,
2013-05-17 16:33:00,61.4,48.3,30.10,SSE,163,0.0,0.0,62,0.00,BKN,BKN,0.02,WeatherDisplay:10.37,2013-05-17 23:33:00,
2013-05-17 16:38:00,61.1,47.1,30.11,South,189,2.0,3.0,60,0.00,BKN,BKN,0.02,WeatherDisplay:10.37,2013-05-17 23:38:00,
2013-05-17 16:43:00,60.9,47.8,30.10,SSW,202,0.0,1.0,62,0.00,BKN,BKN,0.02,WeatherDisplay:10.37,2013-05-17 23:43:00,
2013-05-17 16:48:00,60.9,47.4,30.10,SSE,166,0.0,0.0,61,0.00,BKN,BKN,0.02,WeatherDisplay:10.37,2013-05-17 23:48:00,
2013-05-17 16:53:00,60.9,49.1,30.11,SE,145,0.0,2.0,65,0.00,BKN,BKN,0.02,WeatherDisplay:10.37,2013-05-17 23:53:00,
2013-05-17 16:58:00,60.9,48.2,30.11,SE,137,0.0,2.0,63,0.00,BKN,BKN,0.02,WeatherDisplay:10.37,2013-05-17 23:58:00,
2013-05-17 17:03:00,61.1,48.8,30.11,SE,146,0.0,1.0,64,0.00,BKN,BKN,0.02,WeatherDisplay:10.37,2013-05-18 00:03:00,
2013-05-17 17:08:00,61.1,48.4,30.11,SE,145,0.0,2.0,63,0.00,BKN,BKN,0.02,WeatherDisplay:10.37,2013-05-18 00:08:00,
2013-05-17 17:13:00,60.9,48.2,30.11,SSE,150,1.0,2.0,63,0.00,BKN,BKN,0.02,WeatherDisplay:10.37,2013-05-18 00:13:00,
2013-05-17 17:18:00,60.7,48.4,30.11,SSE,165,0.0,1.0,64,0.00,BKN,BKN,0.02,WeatherDisplay:10.37,2013-05-18 00:18:00,
2013-05-17 17:23:00,60.4,49.4,30.11,South,173,0.0,0.0,67,0.00,BKN,BKN,0.02,WeatherDisplay:10.37,2013-05-18 00:23:00,
2013-05-17 17:28:00,60.3,49.3,30.11,South,172,0.0,0.0,67,0.00,BKN,BKN,0.02,WeatherDisplay:10.37,2013-05-18 00:28:00,
2013-05-17 17:33:00,60.1,48.7,30.11,South,173,0.0,0.0,66,0.00,BKN,BKN,0.02,WeatherDisplay:10.37,2013-05-18 00:33:00,
2013-05-17 17:38:00,59.9,48.9,30.11,South,173,0.0,0.0,67,0.00,BKN,BKN,0.02,WeatherDisplay:10.37,2013-05-18 00:38:00,
2013-05-17 17:43:00,59.4,49.2,30.11,SSW,195,1.0,3.0,69,0.00,BKN,BKN,0.02,WeatherDisplay:10.37,2013-05-18 00:43:00,
2013-05-17 17:48:00,58.7,49.0,30.12,WSW,246,1.0,2.0,70,0.00,BKN,BKN,0.02,WeatherDisplay:10.37,2013-05-18 00:48:00,
2013-05-17 17:53:00,58.3,49.7,30.12,West,270,0.0,1.0,73,0.00,BKN,BKN,0.02,WeatherDisplay:10.37,2013-05-18 00:53:00,
2013-05-17 17:58:00,58.0,49.8,30.12,West,278,0.0,1.0,74,0.00,BKN,BKN,0.02,WeatherDisplay:10.37,2013-05-18 00:58:00,
2013-05-17 18:03:00,57.9,50.4,30.12,WSW,256,0.0,2.0,76,0.00,BKN,BKN,0.02,WeatherDisplay:10.37,2013-05-18 01:03:00,
2013-05-17 18:08:00,58.0,50.8,30.12,WSW,246,0.0,2.0,77,0.00,BKN,BKN,0.02,WeatherDisplay:10.37,2013-05-18 01:08:00,
2013-05-17 18:13:00,58.2,50.7,30.12,WSW,247,0.0,1.0,76,0.00,BKN,BKN,0.02,WeatherDisplay:10.37,2013-05-18 01:13:00,
2013-05-17 18:18:00,58.3,50.8,30.12,WSW,245,0.0,1.0,76,0.00,BKN,BKN,0.02,WeatherDisplay:10.37,2013-05-18 01:18:00,
2013-05-17 18:23:00,58.2,50.3,30.12,West,264,0.0,2.0,75,0.00,BKN,BKN,0.02,WeatherDisplay:10.37,2013-05-18 01:23:00,
2013-05-17 18:28:00,58.0,50.8,30.13,West,271,0.0,1.0,77,0.00,BKN,BKN,0.02,WeatherDisplay:10.37,2013-05-18 01:28:00,
2013-05-17 18:33:00,57.4,50.9,30.13,SSE,163,1.0,4.0,79,0.00,BKN,BKN,0.02,WeatherDisplay:10.37,2013-05-18 01:33:00,
2013-05-17 18:38:00,56.4,51.3,30.13,SE,137,1.0,3.0,83,0.01,RA,RA,0.03,WeatherDisplay:10.37,2013-05-18 01:38:00,
2013-05-17 18:43:00,55.8,51.7,30.13,SE,144,0.0,1.0,86,0.01,RA,RA,0.04,WeatherDisplay:10.37,2013-05-18 01:43:00,
2013-05-17 18:48:00,55.4,51.6,30.13,SE,141,0.0,1.0,87,0.01,RA,RA,0.05,WeatherDisplay:10.37,2013-05-18 01:48:00,
2013-05-17 18:53:00,54.9,51.7,30.13,SE,140,0.0,1.0,89,0.00,RA,RA,0.05,WeatherDisplay:10.37,2013-05-18 01:53:00,
2013-05-17 18:58:00,54.6,51.7,30.13,SSE,161,0.0,1.0,90,0.00,BKN,BKN,0.05,WeatherDisplay:10.37,2013-05-18 01:58:00,
2013-05-17 19:03:00,54.4,51.8,30.13,SSE,166,0.0,0.0,91,0.01,RA,RA,0.06,WeatherDisplay:10.37,2013-05-18 02:03:00,
2013-05-17 19:08:00,54.3,51.7,30.13,SSE,157,0.0,0.0,91,0.00,RA,RA,0.06,WeatherDisplay:10.37,2013-05-18 02:08:00,
2013-05-17 19:13:00,54.2,51.6,30.14,SSE,153,0.0,0.0,91,0.00,BKN,BKN,0.06,WeatherDisplay:10.37,2013-05-18 02:13:00,
2013-05-17 19:18:00,54.0,51.7,30.14,SSE,153,0.0,0.0,92,0.01,RA,RA,0.07,WeatherDisplay:10.37,2013-05-18 02:18:00,
2013-05-17 19:23:00,54.0,51.7,30.14,SSE,155,0.0,0.0,92,0.00,RA,RA,0.07,WeatherDisplay:10.37,2013-05-18 02:23:00,
2013-05-17 19:28:00,54.1,52.1,30.14,SSE,155,0.0,0.0,93,0.00,BKN,BKN,0.07,WeatherDisplay:10.37,2013-05-18 02:28:00,
2013-05-17 19:33:00,54.1,52.1,30.14,SSE,153,0.0,0.0,93,0.00,BKN,BKN,0.07,WeatherDisplay:10.37,2013-05-18 02:33:00,
2013-05-17 19:38:00,54.1,52.1,30.14,SSE,159,0.0,0.0,93,0.02,RA,RA,0.09,WeatherDisplay:10.37,2013-05-18 02:38:00,
2013-05-17 19:43:00,54.1,52.1,30.14,SSE,168,0.0,0.0,93,0.00,RA,RA,0.09,WeatherDisplay:10.37,2013-05-18 02:43:00,
2013-05-17 19:48:00,54.0,52.0,30.14,SSE,153,0.0,0.0,93,0.00,BKN,BKN,0.09,WeatherDisplay:10.37,2013-05-18 02:48:00,
2013-05-17 19:53:00,54.0,52.0,30.14,ESE,110,0.0,1.0,93,0.00,BKN,BKN,0.09,WeatherDisplay:10.37,2013-05-18 02:53:00,
2013-05-17 19:58:00,53.9,52.2,30.14,ESE,114,0.0,0.0,94,0.00,BKN,BKN,0.09,WeatherDisplay:10.37,2013-05-18 02:58:00,
2013-05-17 20:03:00,53.9,52.2,30.14,SE,143,0.0,0.0,94,0.00,BKN,BKN,0.09,WeatherDisplay:10.37,2013-05-18 03:03:00,
2013-05-17 20:08:00,53.8,52.1,30.14,SSE,152,0.0,1.0,94,0.00,BKN,BKN,0.09,WeatherDisplay:10.37,2013-05-18 03:08:00,
2013-05-17 20:13:00,53.7,52.0,30.14,SSE,157,0.0,0.0,94,0.00,BKN,BKN,0.09,WeatherDisplay:10.37,2013-05-18 03:13:00,
2013-05-17 20:18:00,53.6,51.9,30.15,SSE,157,0.0,0.0,94,0.00,BKN,BKN,0.09,WeatherDisplay:10.37,2013-05-18 03:18:00,
2013-05-17 20:23:00,53.5,51.8,30.15,SE,142,0.0,1.0,94,0.00,BKN,BKN,0.09,WeatherDisplay:10.37,2013-05-18 03:23:00,
2013-05-17 20:28:00,53.4,51.7,30.15,SE,127,0.0,0.0,94,0.00,BKN,BKN,0.09,WeatherDisplay:10.37,2013-05-18 03:28:00,
2013-05-17 20:33:00,53.2,51.5,30.15,SE,128,0.0,0.0,94,0.00,BKN,BKN,0.09,WeatherDisplay:10.37,2013-05-18 03:33:00,
2013-05-17 20:38:00,53.1,51.5,30.15,SE,130,0.0,0.0,94,0.00,BKN,BKN,0.09,WeatherDisplay:10.37,2013-05-18 03:38:00,
2013-05-17 20:43:00,53.1,51.4,30.15,SE,131,0.0,0.0,94,0.00,BKN,BKN,0.09,WeatherDisplay:10.37,2013-05-18 03:43:00,
2013-05-17 20:48:00,53.0,51.3,30.15,SE,131,0.0,0.0,94,0.00,BKN,BKN,0.09,WeatherDisplay:10.37,2013-05-18 03:48:00,
2013-05-17 20:53:00,52.9,51.5,30.15,SE,127,0.0,0.0,95,0.00,BKN,BKN,0.09,WeatherDisplay:10.37,2013-05-18 03:53:00,
2013-05-17 20:58:00,52.8,51.4,30.15,ESE,122,0.0,0.0,95,0.00,BKN,BKN,0.09,WeatherDisplay:10.37,2013-05-18 03:58:00,
2013-05-17 21:03:00,52.8,51.4,30.16,ESE,123,0.0,0.0,95,0.00,BKN,BKN,0.09,WeatherDisplay:10.37,2013-05-18 04:03:00,
2013-05-17 21:08:00,52.7,51.3,30.16,SSE,147,1.0,3.0,95,0.00,BKN,BKN,0.09,WeatherDisplay:10.37,2013-05-18 04:08:00,
2013-05-17 21:13:00,52.6,51.2,30.16,SSW,194,0.0,0.0,95,0.00,BKN,BKN,0.09,WeatherDisplay:10.37,2013-05-18 04:13:00,
2013-05-17 21:18:00,52.5,50.8,30.16,SSW,207,0.0,0.0,94,0.00,BKN,BKN,0.09,WeatherDisplay:10.37,2013-05-18 04:18:00,
2013-05-17 21:23:00,52.4,51.0,30.16,SSW,207,0.0,0.0,95,0.00,BKN,BKN,0.09,WeatherDisplay:10.37,2013-05-18 04:23:00,
2013-05-17 21:28:00,52.3,50.9,30.17,SSW,207,0.0,0.0,95,0.00,BKN,BKN,0.09,WeatherDisplay:10.37,2013-05-18 04:28:00,
2013-05-17 21:33:00,52.3,50.9,30.17,SSW,207,0.0,0.0,95,0.00,BKN,BKN,0.09,WeatherDisplay:10.37,2013-05-18 04:33:00,
2013-05-17 21:38:00,52.3,50.9,30.17,SSW,207,0.0,0.0,95,0.00,BKN,BKN,0.09,WeatherDisplay:10.37,2013-05-18 04:38:00,
2013-05-17 21:43:00,52.4,51.0,30.17,SSW,207,0.0,0.0,95,0.00,BKN,BKN,0.09,WeatherDisplay:10.37,2013-05-18 04:43:00,
2013-05-17 21:48:00,52.4,51.0,30.17,SSW,206,0.0,0.0,95,0.00,BKN,BKN,0.09,WeatherDisplay:10.37,2013-05-18 04:48:00,
2013-05-17 21:53:00,52.4,51.0,30.17,SSW,196,0.0,0.0,95,0.00,BKN,BKN,0.09,WeatherDisplay:10.37,2013-05-18 04:53:00,
2013-05-17 21:58:00,52.3,50.9,30.17,South,174,0.0,0.0,95,0.00,BKN,BKN,0.09,WeatherDisplay:10.37,2013-05-18 04:58:00,
2013-05-17 22:03:00,52.3,50.9,30.17,SSE,161,0.0,0.0,95,0.00,BKN,BKN,0.09,WeatherDisplay:10.37,2013-05-18 05:03:00,
2013-05-17 22:08:00,52.2,50.8,30.17,SSE,161,0.0,0.0,95,0.00,BKN,BKN,0.09,WeatherDisplay:10.37,2013-05-18 05:08:00,
2013-05-17 22:13:00,52.2,50.8,30.18,SSE,167,0.0,0.0,95,0.00,BKN,BKN,0.09,WeatherDisplay:10.37,2013-05-18 05:13:00,
2013-05-17 22:18:00,52.1,50.7,30.18,SSE,161,0.0,0.0,95,0.00,BKN,BKN,0.09,WeatherDisplay:10.37,2013-05-18 05:18:00,
2013-05-17 22:23:00,52.1,50.7,30.18,SSE,161,0.0,0.0,95,0.00,BKN,BKN,0.09,WeatherDisplay:10.37,2013-05-18 05:23:00,
2013-05-17 22:28:00,52.1,50.7,30.18,SSE,152,0.0,0.0,95,0.00,BKN,BKN,0.09,WeatherDisplay:10.37,2013-05-18 05:28:00,
2013-05-17 22:33:00,52.0,50.6,30.18,SE,141,0.0,0.0,95,0.00,BKN,BKN,0.09,WeatherDisplay:10.37,2013-05-18 05:33:00,
2013-05-17 22:38:00,52.0,50.6,30.18,SSE,152,0.0,0.0,95,0.00,BKN,BKN,0.09,WeatherDisplay:10.37,2013-05-18 05:38:00,
2013-05-17 22:43:00,52.0,50.6,30.18,SSE,163,0.0,0.0,95,0.00,BKN,BKN,0.09,WeatherDisplay:10.37,2013-05-18 05:43:00,
2013-05-17 22:48:00,51.9,50.5,30.18,SSE,153,0.0,0.0,95,0.00,BKN,BKN,0.09,WeatherDisplay:10.37,2013-05-18 05:48:00,
2013-05-17 22:53:00,51.9,50.5,30.18,SE,141,0.0,0.0,95,0.00,BKN,BKN,0.09,WeatherDisplay:10.37,2013-05-18 05:53:00,
2013-05-17 22:58:00,51.9,50.5,30.18,SSE,152,0.0,0.0,95,0.00,BKN,BKN,0.09,WeatherDisplay:10.37,2013-05-18 05:58:00,
2013-05-17 23:03:00,51.9,50.2,30.18,SSE,163,0.0,0.0,94,0.00,BKN,BKN,0.09,WeatherDisplay:10.37,2013-05-18 06:03:00,
2013-05-17 23:08:00,51.9,50.2,30.18,SSE,161,0.0,1.0,94,0.00,BKN,BKN,0.09,WeatherDisplay:10.37,2013-05-18 06:08:00,
2013-05-17 23:13:00,51.8,50.1,30.19,South,169,0.0,1.0,94,0.00,BKN,BKN,0.09,WeatherDisplay:10.37,2013-05-18 06:13:00,
2013-05-17 23:18:00,51.8,50.1,30.19,South,174,0.0,0.0,94,0.00,BKN,BKN,0.09,WeatherDisplay:10.37,2013-05-18 06:18:00,
2013-05-17 23:23:00,51.9,50.2,30.19,South,171,0.0,0.0,94,0.00,BKN,BKN,0.09,WeatherDisplay:10.37,2013-05-18 06:23:00,
2013-05-17 23:28:00,51.9,50.2,30.19,SSE,166,0.0,0.0,94,0.00,BKN,BKN,0.09,WeatherDisplay:10.37,2013-05-18 06:28:00,
2013-05-17 23:33:00,51.9,50.2,30.19,SSE,162,0.0,0.0,94,0.00,BKN,BKN,0.09,WeatherDisplay:10.37,2013-05-18 06:33:00,
2013-05-17 23:38:00,51.9,50.2,30.19,SSE,162,0.0,0.0,94,0.00,BKN,BKN,0.09,WeatherDisplay:10.37,2013-05-18 06:38:00,
2013-05-17 23:43:00,51.8,50.4,30.19,SSE,162,0.0,0.0,95,0.00,BKN,BKN,0.09,WeatherDisplay:10.37,2013-05-18 06:43:00,
2013-05-17 23:48:00,51.8,50.4,30.19,SSE,162,0.0,0.0,95,0.00,BKN,BKN,0.09,WeatherDisplay:10.37,2013-05-18 06:48:00,
2013-05-17 23:53:00,51.7,50.3,30.19,SSE,162,0.0,0.0,95,0.00,BKN,BKN,0.09,WeatherDisplay:10.37,2013-05-18 06:53:00,
2013-05-17 23:58:00,51.7,50.3,30.19,SSE,163,0.0,0.0,95,0.00,BKN,BKN,0.09,WeatherDisplay:10.37,2013-05-18 06:58:00,